South St. Paul, MN

1:46 AM CDT on July 23, 2017 (GMT -0500)
South Saint Paul Municipal-Fleming

Weather History for KSGS - December, 2011

Change the Weather History Date:

Wednesday, December 14, 2011

  Actual Average (KSTP) Record (KSTP)
Temperature  
Mean Temperature 36 °F -  
Max Temperature 38 °F 29 °F 55 °F (1998)
Min Temperature 35 °F 14 °F -7 °F (2010)
Degree Days  
Heating Degree Days 28    
Moisture  
Dew Point 36 °F    
Average Humidity 97    
Maximum Humidity 99    
Minimum Humidity 90    
Precipitation  
Precipitation 0.44 in - - ()
Sea Level Pressure  
Sea Level Pressure 29.85 in    
Wind  
Wind Speed 3 mph (SE)    
Max Wind Speed 7 mph    
Max Gust Speed -    
Visibility 3 miles    
Events Rain    
Averages and records for this station are not official NWS values.
T = Trace of Precipitation, MM = Missing Value Source: NWS Daily Summary

Daily Weather History Graph

Daily Weather History Graph

Search for Another Location

Airport or City:

Trip Planner

Search our weather history database for the weather conditions in past years. The results will help you decide how hot, cold, wet, or windy it might be!

Date:

Astronomy

Dec. 14, 2011 Rise Set
Actual Time 7:42 AM CST 4:31 PM CST
Civil Twilight 7:08 AM CST 5:04 PM CST
Nautical Twilight 6:31 AM CST 5:42 PM CST
Astronomical Twilight 5:55 AM CST 6:17 PM CST
Moon 9:00 PM CST (12/14) 10:19 AM CST (12/14)
Length of Visible Light 9h 56m
Length of Day
8h 49m
Waning Gibbous, 83% of the Moon is Illuminated
Dec 14
Waning Gibbous
Dec 17
Last Quarter
Dec 24
New
Jan 1
First Quarter
Jan 9
Full

Hourly Weather History & Observations

Time (CST) Temp. Windchill Dew Point Humidity Pressure Visibility Wind Dir Wind Speed Gust Speed Precip Events Conditions
12:14 AM 36.7 °F 34.1 °F 34.0 °F 90% 30.08 in 5.0 mi SE 3.5 mph - N/A   Overcast
12:34 AM 36.5 °F 32.7 °F 34.2 °F 91% 30.08 in 4.0 mi SSE 4.6 mph - 0.01 in Rain Light Rain
12:54 AM 36.5 °F 32.7 °F 34.3 °F 92% 30.07 in 4.0 mi SE 4.6 mph - 0.02 in Rain Rain
1:14 AM 36.5 °F 32.7 °F 34.3 °F 92% 30.06 in 4.0 mi SE 4.6 mph - N/A   Light Drizzle
1:34 AM 36.5 °F 32.7 °F 34.3 °F 92% 30.05 in 4.0 mi SE 4.6 mph - N/A   Mostly Cloudy
1:54 AM 36.1 °F 32.3 °F 34.3 °F 93% 30.04 in 2.5 mi SE 4.6 mph - N/A   Light Drizzle
1:59 AM 36.1 °F 32.3 °F 34.3 °F 93% 30.03 in 2.5 mi SE 4.6 mph - 0.01 in Rain Light Rain
2:14 AM 36.0 °F 33.3 °F 34.2 °F 93% 30.03 in 3.0 mi SSE 3.5 mph - N/A Rain Light Rain
2:34 AM 36.0 °F 33.3 °F 34.2 °F 93% 30.04 in 3.0 mi SE 3.5 mph - N/A   Overcast
2:54 AM 35.8 °F 33.0 °F 34.2 °F 94% 30.04 in 2.5 mi SE 3.5 mph - N/A   Overcast
3:14 AM 35.8 °F 33.0 °F 34.3 °F 94% 30.01 in 1.5 mi ESE 3.5 mph - 0.01 in   Light Drizzle
3:34 AM 35.8 °F 31.9 °F 34.7 °F 96% 29.99 in 1.8 mi SE 4.6 mph - 0.01 in   Overcast
3:54 AM 35.8 °F 30.9 °F 34.7 °F 96% 29.97 in 1.8 mi SSE 5.8 mph - 0.01 in   Overcast
3:59 AM 35.8 °F 30.9 °F 34.7 °F 96% 29.97 in 1.8 mi SE 5.8 mph - 0.01 in   Overcast
4:14 AM 35.8 °F 31.9 °F 34.9 °F 97% 29.95 in 2.0 mi SE 4.6 mph - N/A   Overcast
4:34 AM 35.8 °F 31.9 °F 34.9 °F 97% 29.95 in 1.8 mi SE 4.6 mph - N/A   Overcast
4:54 AM 36.0 °F 32.1 °F 35.1 °F 97% 29.96 in 1.8 mi SSE 4.6 mph - N/A   Light Drizzle
5:14 AM 36.0 °F 33.3 °F 35.1 °F 97% 29.95 in 1.8 mi SE 3.5 mph - N/A   Overcast
5:34 AM 35.8 °F 31.9 °F 35.1 °F 97% 29.94 in 1.5 mi SSE 4.6 mph - N/A   Overcast
5:54 AM 36.0 °F 33.3 °F 35.2 °F 97% 29.93 in 1.8 mi SE 3.5 mph - N/A   Overcast
6:13 AM 36.0 °F - 35.2 °F 97% 29.93 in 1.5 mi Calm Calm - N/A   Overcast
6:34 AM 36.0 °F 31.1 °F 35.2 °F 97% 29.91 in 1.5 mi SE 5.8 mph - N/A   Overcast
6:54 AM 36.0 °F 33.3 °F 35.6 °F 99% 29.93 in 1.5 mi SSE 3.5 mph - N/A   Overcast
7:14 AM 36.0 °F 33.3 °F 35.6 °F 99% 29.92 in 1.2 mi SE 3.5 mph - N/A   Overcast
7:34 AM 35.8 °F 31.9 °F 35.2 °F 98% 29.89 in 0.8 mi ESE 4.6 mph - N/A Rain Light Rain
7:54 AM 36.0 °F 32.1 °F 35.6 °F 99% 29.87 in 1.2 mi SE 4.6 mph - N/A   Overcast
8:13 AM 36.1 °F 32.3 °F 35.6 °F 98% 29.88 in 1.8 mi SSE 4.6 mph - N/A   Overcast
8:34 AM 36.1 °F 30.6 °F 35.6 °F 98% 29.87 in 1.8 mi SSE 6.9 mph - N/A   Overcast
8:54 AM 36.3 °F 32.5 °F 35.8 °F 98% 29.85 in 1.8 mi ESE 4.6 mph - N/A   Overcast
9:14 AM 36.7 °F 32.9 °F 36.1 °F 98% 29.85 in 2.5 mi SSE 4.6 mph - N/A   Overcast
9:34 AM 36.9 °F 33.1 °F 36.5 °F 99% 29.85 in 2.5 mi SSE 4.6 mph - N/A   Overcast
9:54 AM 37.0 °F 34.5 °F 36.5 °F 98% 29.85 in 2.0 mi SSE 3.5 mph - N/A Rain Light Rain
10:13 AM 37.0 °F 34.5 °F 36.5 °F 98% 29.85 in 1.8 mi SSE 3.5 mph - 0.01 in   Light Drizzle
10:34 AM 37.0 °F - 36.5 °F 98% 29.84 in 1.5 mi Calm Calm - 0.01 in   Overcast
10:54 AM 37.4 °F - 36.9 °F 98% 29.83 in 1.2 mi Calm Calm - 0.01 in   Overcast
10:59 AM 37.4 °F - 36.9 °F 98% 29.82 in 1.2 mi Calm Calm - 0.01 in   Overcast
11:14 AM 37.4 °F 33.8 °F 36.9 °F 98% 29.82 in 1.5 mi SSE 4.6 mph - N/A   Overcast
11:34 AM 37.4 °F 34.9 °F 36.9 °F 98% 29.82 in 1.5 mi SSE 3.5 mph - 0.01 in Rain Light Rain
11:54 AM 37.6 °F 35.1 °F 37.0 °F 98% 29.78 in 1.8 mi SE 3.5 mph - 0.04 in Rain Light Rain
11:59 AM 37.6 °F - 37.0 °F 98% 29.78 in 1.8 mi Calm Calm - 0.04 in Rain Light Rain
12:13 PM 37.6 °F - 37.0 °F 98% 29.78 in 2.5 mi Calm Calm - 0.02 in Rain Light Rain
12:34 PM 37.6 °F - 37.0 °F 98% 29.76 in 2.5 mi Calm Calm - 0.04 in Rain Light Rain
12:54 PM 37.6 °F - 37.0 °F 98% 29.75 in 1.8 mi Calm Calm - 0.09 in Rain Rain
12:59 PM 37.8 °F - 37.2 °F 98% 29.75 in 1.8 mi Calm Calm - 0.11 in Rain Rain
1:14 PM 37.8 °F - 37.4 °F 99% 29.74 in 3.0 mi Calm Calm - 0.02 in Rain Light Rain
1:34 PM 38.3 °F - 37.8 °F 98% 29.72 in 3.0 mi Calm Calm - 0.04 in Rain Light Rain
1:54 PM 38.3 °F - 37.8 °F 98% 29.72 in 4.0 mi Calm Calm - 0.05 in Rain Light Rain
1:59 PM 38.3 °F - 37.8 °F 98% 29.72 in 4.0 mi Calm Calm - 0.05 in Rain Light Rain
2:14 PM 38.3 °F - 37.8 °F 98% 29.69 in 2.5 mi Calm Calm - 0.02 in Rain Rain
2:34 PM 38.3 °F - 37.8 °F 98% 29.69 in 4.0 mi Calm Calm - 0.03 in Rain Light Rain
2:54 PM 38.3 °F 35.9 °F 37.8 °F 98% 29.70 in 3.0 mi South 3.5 mph - 0.05 in Rain Light Rain
2:59 PM 38.3 °F 35.9 °F 37.8 °F 98% 29.69 in 2.5 mi SSE 3.5 mph - 0.06 in Rain Light Rain
3:14 PM 38.3 °F 35.9 °F 37.8 °F 98% 29.69 in 3.0 mi SSE 3.5 mph - 0.04 in Rain Light Rain
3:34 PM 38.3 °F 34.8 °F 37.8 °F 98% 29.68 in 3.0 mi SE 4.6 mph - 0.07 in Rain Light Rain
3:54 PM 38.3 °F - 37.8 °F 98% 29.67 in 4.0 mi Calm Calm - 0.09 in Rain Light Rain
4:14 PM 38.3 °F - 37.8 °F 98% 29.67 in 5.0 mi Calm Calm - N/A Rain Light Rain
4:34 PM 38.3 °F - 37.8 °F 98% 29.66 in 5.0 mi Calm Calm - 0.01 in Rain Rain
4:54 PM 38.3 °F - 37.8 °F 98% 29.65 in 5.0 mi Calm Calm - 0.02 in Rain Light Rain
4:59 PM 38.3 °F - 37.8 °F 98% 29.66 in 5.0 mi Calm Calm - 0.03 in Rain Light Rain
5:14 PM 38.3 °F - 37.6 °F 97% 29.66 in 5.0 mi Calm Calm - N/A Rain Light Rain
5:33 PM 38.3 °F - 37.8 °F 98% 29.65 in 7.0 mi Calm Calm - 0.01 in Rain Light Rain
5:54 PM 38.1 °F - 37.6 °F 98% 29.65 in 5.0 mi Calm Calm - 0.03 in Rain Light Rain
5:59 PM 38.3 °F 35.9 °F 37.6 °F 97% 29.63 in 4.0 mi North 3.5 mph - 0.04 in Rain Light Rain
6:14 PM 38.3 °F - 37.8 °F 98% 29.64 in 5.0 mi Calm Calm - N/A Rain Rain
6:34 PM 38.3 °F - 37.8 °F 98% 29.64 in 3.0 mi Calm Calm - 0.01 in   Light Drizzle
6:54 PM 38.3 °F - 37.8 °F 98% 29.65 in 2.5 mi Calm Calm - 0.01 in Rain Light Rain
6:59 PM 38.1 °F - 37.8 °F 99% 29.65 in 1.5 mi Calm Calm - 0.01 in   Overcast
7:14 PM 38.1 °F - 37.6 °F 98% 29.65 in 1.2 mi Calm Calm - N/A   Light Drizzle
7:34 PM 37.9 °F - 37.6 °F 99% 29.65 in 1.5 mi Calm Calm - N/A   Light Drizzle
7:54 PM 38.3 °F - 37.8 °F 98% 29.64 in 1.8 mi Calm Calm - 0.01 in   Light Drizzle
7:59 PM 38.3 °F - 37.8 °F 98% 29.64 in 2.0 mi Calm Calm - 0.01 in   Overcast
8:14 PM 38.3 °F - 37.8 °F 98% 29.64 in 3.0 mi Calm Calm - N/A   Overcast
8:34 PM 38.3 °F - 37.9 °F 99% 29.64 in 5.0 mi Calm Calm - N/A   Overcast
8:54 PM 38.3 °F - 37.9 °F 99% 29.63 in 7.0 mi Calm Calm - N/A   Overcast
9:14 PM 38.3 °F 34.8 °F 37.9 °F 99% 29.63 in 10.0 mi NW 4.6 mph - N/A   Overcast
9:34 PM 38.5 °F 34.1 °F 38.1 °F 99% 29.63 in 4.0 mi NW 5.8 mph - N/A   Overcast
9:54 PM 38.5 °F 34.1 °F 38.3 °F 99% 29.62 in 2.5 mi NW 5.8 mph - N/A   Overcast
10:14 PM 38.3 °F 34.8 °F 38.1 °F 99% 29.62 in 3.0 mi NW 4.6 mph - N/A   Overcast
10:34 PM 38.3 °F 32.5 °F 37.8 °F 98% 29.62 in 5.0 mi NW 8.1 mph - N/A   Overcast
10:54 PM 37.9 °F 32.1 °F 37.6 °F 99% 29.62 in 7.0 mi NW 8.1 mph - N/A   Overcast
11:14 PM 37.8 °F 32.5 °F 37.4 °F 99% 29.63 in 10.0 mi NW 6.9 mph - N/A   Overcast
11:34 PM 37.8 °F 31.8 °F 37.4 °F 99% 29.64 in 10.0 mi NW 8.1 mph - N/A   Overcast
11:54 PM 37.8 °F 31.3 °F 37.4 °F 99% 29.65 in 5.0 mi WNW 9.2 mph - N/A   Overcast